Lemoore NAS, CA

5:31 PM PST on December 16, 2017 (GMT -0800)
Lemoore Naval Air Station

Weather History for KNLC - September, 2013

Change the Weather History Date:

Wednesday, September 11, 2013

  Actual Average Record
Temperature  
Mean Temperature 76 °F -  
Max Temperature 91 °F 89 °F 100 °F (2014)
Min Temperature 62 °F 57 °F 46 °F (2005)
Cooling Degree Days 12    
Growing Degree Days 26 (Base 50)    
Moisture  
Dew Point 54 °F    
Average Humidity 50    
Maximum Humidity 72    
Minimum Humidity 24    
Precipitation  
Precipitation 0.00 in - - ()
Sea Level Pressure  
Sea Level Pressure 29.91 in    
Wind  
Wind Speed 9 mph (NW)    
Max Wind Speed 14 mph    
Max Gust Speed -    
Visibility 9 miles    
Events      
Averages and records for this station are not official NWS values.
T = Trace of Precipitation, MM = Missing Value Source: NWS Daily Summary

Daily Weather History Graph

Daily Weather History Graph

Search for Another Location

Airport or City:

Trip Planner

Search our weather history database for the weather conditions in past years. The results will help you decide how hot, cold, wet, or windy it might be!

Date:

Astronomy

Sep. 11, 2013 Rise Set
Actual Time 6:39 AM PDT 7:12 PM PDT
Civil Twilight 6:13 AM PDT 7:38 PM PDT
Nautical Twilight 5:42 AM PDT 8:08 PM PDT
Astronomical Twilight 5:11 AM PDT 8:39 PM PDT
Moon 1:01 PM PDT (9/11) 11:24 PM PDT (9/11)
Length of Visible Light 13h 25m
Length of Day
12h 33m
Waxing Crescent, 40% of the Moon is Illuminated
Sep 11
Waxing Crescent
Sep 12
First Quarter
Sep 19
Full
Sep 26
Last Quarter
Oct 4
New

Hourly Weather History & Observations

Time (PDT) Temp. Heat Index Dew Point Humidity Pressure Visibility Wind Dir Wind Speed Gust Speed Precip Events Conditions
12:56 AM 70.0 °F - 50.0 °F 49% 29.83 in 10.0 mi WNW 8.1 mph - N/A   Clear
1:56 AM 70.0 °F - 50.0 °F 49% 29.85 in 10.0 mi WNW 8.1 mph - N/A   Clear
2:56 AM 66.9 °F - 51.1 °F 57% 29.86 in 10.0 mi WNW 8.1 mph - N/A   Clear
3:56 AM 64.9 °F - 51.1 °F 61% 29.87 in 9.0 mi NW 6.9 mph - N/A   Clear
4:56 AM 64.9 °F - 53.1 °F 65% 29.88 in 10.0 mi NNW 9.2 mph - N/A   Clear
5:56 AM 64.0 °F - 54.0 °F 70% 29.91 in 10.0 mi NW 6.9 mph - N/A   Clear
6:56 AM 63.0 °F - 54.0 °F 72% 29.93 in 7.0 mi NW 9.2 mph - N/A   Clear
7:11 AM 62.6 °F - 53.6 °F 72% 29.93 in 9.0 mi NW 8.1 mph - N/A   Mostly Cloudy
7:56 AM 66.0 °F - 55.9 °F 70% 29.95 in 9.0 mi NW 12.7 mph - N/A   Mostly Cloudy
8:56 AM 70.0 °F - 57.0 °F 63% 29.96 in 9.0 mi NNW 13.8 mph - N/A   Overcast
9:56 AM 73.9 °F - 57.9 °F 57% 29.97 in 9.0 mi NNW 13.8 mph - N/A   Mostly Cloudy
10:56 AM 75.9 °F - 57.0 °F 52% 29.96 in 9.0 mi NNW 10.4 mph - N/A   Overcast
11:56 AM 81.0 °F 80.7 °F 55.0 °F 41% 29.96 in 10.0 mi NNW 6.9 mph - N/A   Overcast
12:56 PM 84.0 °F 82.9 °F 55.0 °F 37% 29.94 in 10.0 mi WNW 8.1 mph - N/A   Overcast
1:56 PM 84.9 °F 83.7 °F 55.9 °F 37% 29.93 in 10.0 mi NW 10.4 mph - N/A   Overcast
2:56 PM 88.0 °F - 52.0 °F 29% 29.90 in 10.0 mi NW 8.1 mph - N/A   Mostly Cloudy
3:56 PM 91.0 °F - 50.0 °F 24% 29.89 in 10.0 mi North 5.8 mph - N/A   Overcast
4:56 PM 89.1 °F 87.1 °F 55.0 °F 31% 29.88 in 8.0 mi North 9.2 mph - N/A   Overcast
5:56 PM 87.1 °F 85.1 °F 54.0 °F 32% 29.89 in 8.0 mi North 8.1 mph - N/A   Overcast
6:56 PM 84.0 °F 83.0 °F 55.9 °F 38% 29.88 in 8.0 mi North 6.9 mph - N/A   Mostly Cloudy
7:56 PM 78.1 °F - 53.1 °F 42% 29.88 in 10.0 mi NNW 8.1 mph - N/A   Scattered Clouds
8:56 PM 75.9 °F - 52.0 °F 43% 29.90 in 10.0 mi NW 8.1 mph - N/A   Scattered Clouds
9:56 PM 73.9 °F - 52.0 °F 46% 29.91 in 10.0 mi NNW 6.9 mph - N/A   Partly Cloudy
10:56 PM 71.1 °F - 52.0 °F 51% 29.92 in 10.0 mi NW 5.8 mph - N/A   Partly Cloudy
11:56 PM 69.1 °F - 53.1 °F 57% 29.92 in 10.0 mi NW 8.1 mph - N/A   Partly Cloudy